Theta_e
317 317 318 318 317 317 316 316 315 313 312 312 311 311 312 312 314 316 319 323 326 327 329 329 329 329 327 330 333 330 329 331 328 326 331 332 334 333 331 331 332 331 330
316 316 318 318 317 317 317 316 315 314 314 313 311 309 309 309 311 312 315 316 317 322 324 328 326 328 333 332 331 324 325 325 325 329 330 330 332 330 327 325 330 331 328
316 318 318 317 316 316 316 315 315 314 314 313 312 311 310 309 308 311 314 316 316 317 318 321 329 329 329 329 326 322 322 324 325 328 329 330 332 329 328 330 330 326 322
316 317 317 316 316 316 315 315 314 314 314 313 312 312 310 310 309 309 314 314 314 315 315 315 315 319 324 328 321 322 323 324 324 329 329 331 328 325 327 326 326 324 323
314 314 315 315 315 315 315 314 313 313 313 312 312 311 311 310 309 309 311 315 315 316 315 316 318 317 318 324 322 321 321 324 328 329 329 330 328 326 322 324 326 324 321
312 312 312 312 312 312 313 313 313 313 313 312 312 312 311 310 309 309 309 315 315 317 316 316 317 320 322 323 323 322 324 329 329 329 329 327 329 326 324 323 321 317 311
310 310 310 310 311 311 312 312 313 313 312 312 311 311 311 310 310 309 310 315 316 317 318 317 318 321 326 324 323 322 327 328 328 327 328 325 324 318 313 310 309 308 308
310 310 310 309 309 310 310 311 311 311 311 311 310 310 309 309 308 308 309 315 317 317 319 318 323 321 323 323 323 327 326 328 326 319 313 310 310 310 309 309 310 309 311
307 306 305 305 305 305 306 306 307 309 309 310 309 309 308 307 308 309 309 315 317 319 321 321 322 324 325 324 323 324 322 314 309 309 310 310 311 312 312 312 312 312 314
304 303 303 302 302 302 302 303 304 305 305 306 307 307 307 307 308 308 310 316 317 318 321 320 318 320 323 323 322 324 312 310 311 313 314 313 313 314 313 314 314 317 318
301 301 300 299 299 299 299 300 301 302 303 305 306 307 307 308 307 307 310 312 318 318 320 320 319 319 317 314 312 310 311 313 314 314 314 314 315 316 315 316 316 317 319
299 298 298 298 297 297 298 299 301 301 301 304 307 306 307 307 306 307 307 310 317 316 318 320 319 319 316 315 314 315 316 317 317 317 317 317 317 316 316 316 317 319 321
297 297 296 297 297 297 297 298 299 303 303 305 306 307 307 306 306 305 306 310 316 316 317 319 319 319 319 318 317 318 320 319 318 318 318 317 317 317 318 318 319 320 320
297 297 297 296 296 296 296 297 299 300 303 304 306 307 306 305 305 305 309 309 316 318 317 318 317 319 319 319 318 319 319 319 319 319 319 317 317 318 318 318 320 320 319
296 296 296 296 296 296 296 297 299 301 303 305 305 306 304 305 306 308 310 309 315 319 319 318 319 319 318 320 319 320 320 321 320 319 318 316 317 318 319 319 320 319 321
297 297 296 295 295 296 296 298 300 300 302 304 304 305 305 306 306 308 312 309 313 318 319 318 317 318 318 319 319 319 319 320 320 319 318 317 318 317 317 319 320 318 325
296 297 298 298 295 296 296 297 298 301 302 302 302 303 304 305 306 308 307 312 314 317 319 319 316 317 320 320 320 319 319 319 319 319 317 318 317 316 315 319 319 319 326
300 303 301 301 299 296 295 296 299 299 300 302 301 301 304 304 305 307 307 312 315 315 317 319 318 317 316 319 319 318 318 318 319 317 317 317 317 316 319 320 318 318 324
305 307 307 304 301 298 296 296 298 299 301 301 302 301 302 302 304 304 307 308 312 314 315 319 319 318 318 316 318 318 319 319 318 318 317 317 316 317 317 318 318 319 323
309 309 307 305 303 299 297 296 297 299 299 301 301 302 304 303 303 303 307 309 311 314 317 318 318 318 318 318 318 319 318 317 317 317 315 314 315 315 317 318 320 319 323
309 309 306 305 303 300 298 296 297 298 299 301 301 302 303 304 304 304 307 309 309 314 317 317 316 317 317 317 318 317 317 316 316 314 312 316 317 317 318 319 319 321 323
308 307 305 304 302 300 298 296 296 297 298 300 302 303 304 303 304 303 306 309 310 312 317 316 316 316 316 316 316 316 316 313 312 314 315 315 316 318 320 320 320 323 322
308 307 305 302 301 299 297 296 296 296 297 298 300 303 303 304 304 305 305 307 310 312 314 315 316 316 316 315 315 313 312 312 312 313 314 315 315 315 318 320 321 323 323
308 307 306 302 300 299 297 296 296 296 297 298 300 302 304 304 304 306 306 306 310 312 312 313 315 314 314 314 313 313 313 313 311 311 315 316 315 315 320 323 323 324 324
308 307 306 305 302 301 300 298 297 297 298 300 300 302 303 305 304 306 307 307 310 311 312 312 312 311 312 313 313 313 313 312 312 310 310 315 315 315 318 324 321 324 324
305 305 305 305 304 303 302 301 301 300 300 301 301 301 301 303 305 305 306 307 308 308 311 312 312 311 312 312 312 312 312 312 310 309 310 312 314 314 318 323 323 322 324
Wind_Speed
21 22 23 24 24 24 27 29 29 29 29 29 32 33 32 30 28 24 20 22 27 31 36 40 37 37 38 42 30 18 46 27 19 35 31 27 24 24 23 24 21 22 23
24 24 24 24 25 29 31 32 33 34 32 32 33 34 33 33 33 31 27 23 26 31 29 33 34 37 37 32 32 19 18 25 37 38 33 31 28 25 24 25 25 24 21
23 23 25 28 28 31 34 35 36 35 33 31 33 34 37 34 35 35 31 25 23 22 25 28 35 41 51 47 23 31 35 33 42 35 35 33 27 23 24 27 24 20 21
15 23 30 31 32 34 36 36 36 37 37 35 34 32 29 32 33 36 33 32 33 33 33 32 37 43 49 39 31 23 37 45 50 31 31 30 25 21 24 24 24 22 18
17 19 21 22 25 30 33 35 37 37 37 36 36 33 28 25 26 34 35 34 32 33 35 34 36 45 39 35 29 36 36 35 34 28 30 27 21 17 17 17 19 19 19
34 35 36 36 37 38 38 37 37 37 36 35 37 39 34 28 30 37 37 35 33 36 45 43 47 48 43 48 34 40 35 30 30 31 28 23 19 17 15 15 19 23 25
39 39 40 39 39 39 39 37 37 38 37 37 35 33 38 39 39 40 34 34 31 36 37 46 50 52 52 52 41 37 34 29 26 26 22 19 16 15 15 14 13 14 17
36 37 38 40 40 39 38 39 39 38 37 38 37 36 37 40 45 39 33 32 28 30 29 40 25 44 48 33 28 31 29 26 23 19 17 16 12 9 7 7 11 15 17
47 53 55 51 46 46 47 46 45 43 44 44 44 41 40 40 33 30 31 30 26 27 22 26 18 32 29 31 31 33 28 22 18 16 15 14 10 5 4 9 11 14 16
57 49 45 45 45 44 44 41 39 41 40 42 45 44 35 34 33 29 26 25 26 20 9 8 11 22 27 32 30 29 26 25 23 19 15 11 6 1 6 9 8 11 10
41 42 39 36 32 32 33 29 33 37 34 30 33 31 27 29 27 26 25 27 26 17 8 20 21 25 27 27 26 27 25 22 17 13 11 8 2 3 5 5 5 8 11
36 36 36 35 32 33 33 29 30 30 31 33 31 29 28 26 25 24 25 27 23 22 8 17 19 22 26 25 23 21 18 15 14 11 8 3 2 5 3 3 5 11 17
35 35 34 33 31 30 30 29 26 26 25 26 22 23 24 23 21 18 22 26 21 28 17 17 22 25 24 22 19 17 16 14 12 10 3 5 5 0 2 5 9 13 16
33 33 32 31 30 28 25 24 24 25 22 19 20 22 19 17 15 14 13 25 16 27 21 20 27 27 24 21 19 20 17 15 13 10 7 7 2 3 6 10 13 16 16
30 31 31 30 29 26 22 22 20 21 21 23 24 19 15 11 14 14 11 22 11 19 24 25 27 29 29 25 21 18 18 18 17 13 7 7 5 9 10 13 12 20 14
30 30 30 30 29 26 21 20 18 19 21 14 16 10 13 9 11 3 5 16 11 9 21 26 25 27 28 22 18 19 20 18 16 12 10 7 8 11 12 9 12 20 13
29 29 27 27 25 25 21 19 19 15 16 16 15 15 20 17 16 10 2 15 12 8 15 29 33 26 24 21 16 13 12 10 8 13 9 8 10 12 14 8 13 14 4
25 24 24 24 21 20 20 19 15 17 14 15 17 19 22 24 23 19 8 11 14 13 9 23 32 31 28 23 20 17 15 15 15 12 9 9 11 14 10 10 14 15 9
24 20 20 22 20 17 16 15 16 18 11 17 14 13 17 24 24 22 19 11 12 15 14 14 23 27 25 26 23 21 17 13 15 13 11 14 13 9 11 13 14 14 11
22 20 24 23 20 15 13 13 14 15 13 13 12 12 12 21 28 26 26 17 12 14 16 16 16 18 19 19 18 17 18 19 17 13 13 10 11 12 14 15 16 16 13
22 23 24 22 18 10 8 9 13 15 16 7 10 10 11 10 19 30 29 21 15 18 19 18 18 20 18 18 19 19 18 17 11 11 8 8 8 9 13 14 18 13 11
19 20 28 18 10 6 1 6 10 12 13 15 9 10 10 10 12 27 32 23 16 19 21 19 18 23 18 17 15 13 13 15 11 6 3 7 8 11 14 16 16 15 13
15 18 23 21 15 9 5 5 7 8 10 17 15 6 13 14 12 17 21 22 20 21 21 19 22 22 20 17 14 11 4 3 2 7 8 10 14 17 19 18 17 16 17
14 16 18 20 22 15 9 7 7 10 10 10 19 13 16 14 18 16 17 18 23 24 21 19 21 21 21 15 14 12 8 7 6 11 10 11 14 16 16 16 13 17 13
14 15 15 15 13 14 15 12 10 12 12 10 16 18 12 14 17 20 17 19 26 24 23 22 20 17 19 18 19 15 14 14 19 18 17 18 17 16 19 7 5 11 17
14 15 14 14 13 11 11 9 10 12 11 9 10 14 16 13 13 16 21 17 19 25 27 27 24 21 21 22 22 21 23 25 23 20 19 21 21 21 16 6 9 15 24
Wind_Direction
273 272 262 269 267 264 271 282 296 309 308 308 314 313 316 316 321 317 303 295 292 284 267 269 273 261 245 243 234 246 243 240 249 239 266 244 242 244 252 250 247 254 264
277 266 261 261 268 263 265 281 289 294 302 300 308 313 318 316 316 317 312 302 296 284 287 269 263 253 246 234 245 260 250 241 232 254 262 248 240 249 253 258 260 265 266
269 261 260 263 266 266 270 280 283 279 283 287 294 301 301 312 317 316 314 310 301 292 285 276 260 249 246 244 276 261 260 231 224 245 251 252 244 247 261 262 257 247 256
274 269 269 271 273 272 277 276 277 280 281 285 289 292 292 298 304 311 310 302 292 289 291 284 273 257 258 254 243 228 224 235 229 245 247 243 243 251 258 259 249 254 273
286 285 287 284 276 270 269 272 276 277 279 282 285 288 288 292 296 305 302 300 291 283 296 284 276 251 256 218 213 209 220 223 236 235 237 238 243 230 238 243 260 267 275
298 296 294 290 284 281 279 276 274 272 272 269 271 277 280 288 297 300 296 295 289 279 295 282 289 250 227 213 221 227 227 223 227 229 227 233 222 227 234 250 265 276 282
301 300 297 292 286 283 281 276 272 271 271 269 267 266 275 279 290 294 291 294 288 287 286 298 282 231 211 212 228 228 230 230 227 222 209 214 222 229 236 247 261 272 283
298 297 295 291 286 281 277 274 273 273 271 271 270 273 284 291 289 280 286 290 284 282 291 328 227 201 210 204 200 207 206 189 189 197 202 205 208 202 214 257 285 291 293
300 299 299 298 294 290 287 284 276 269 272 271 274 279 283 286 278 276 281 282 275 280 284 312 171 189 175 165 187 194 181 183 180 178 169 163 162 185 283 309 303 289 304
304 301 294 290 285 280 274 273 275 272 273 270 271 274 267 266 265 271 279 269 264 267 226 179 134 155 180 182 184 182 177 168 166 164 161 162 172 237 312 304 285 289 305
304 302 299 298 297 289 287 287 283 275 274 275 271 265 264 266 270 271 277 274 253 249 211 190 172 167 164 172 179 167 161 164 166 168 179 190 200 339 305 274 290 316 302
305 302 300 300 296 290 289 282 279 279 274 272 270 261 258 263 265 265 271 267 234 237 211 196 184 175 169 169 165 159 164 171 176 176 188 197 7 336 310 316 331 331 307
306 303 302 301 299 294 284 282 276 280 275 259 265 251 254 263 265 260 264 263 221 232 222 200 188 177 179 177 175 175 182 184 193 196 191 360 322 44 6 347 326 311 311
306 302 302 300 300 295 285 271 268 271 266 257 256 244 246 261 259 257 248 255 273 227 225 206 191 188 190 191 191 192 193 201 215 233 251 329 297 20 343 338 327 323 324
306 304 303 302 300 296 286 270 263 260 252 248 246 248 255 251 260 248 245 244 257 212 205 198 200 195 192 193 203 213 212 218 227 244 274 305 330 351 342 332 321 332 323
306 307 306 299 295 290 283 273 262 254 241 230 215 210 221 224 212 182 215 248 248 228 198 188 198 201 191 193 204 218 225 227 237 250 297 292 318 339 338 328 325 332 312
309 306 305 301 292 284 281 272 259 261 229 229 222 220 221 228 222 211 288 212 238 184 196 195 193 200 196 193 192 197 206 213 249 281 275 288 313 323 329 313 334 334 281
317 312 308 305 301 285 273 260 256 250 244 225 230 228 221 221 227 231 248 231 225 207 191 201 201 204 206 204 217 231 247 264 268 251 267 287 301 312 311 298 318 318 274
328 328 320 312 307 293 276 273 237 231 219 225 208 219 213 221 220 226 232 229 206 212 202 204 208 211 214 222 235 246 242 232 237 237 253 277 288 311 308 305 313 302 273
341 334 330 327 312 296 271 261 222 228 228 236 224 198 201 202 213 217 214 207 206 197 196 178 176 186 195 203 197 202 202 214 228 253 278 282 286 294 292 304 312 297 284
354 2 355 348 333 310 274 230 213 217 206 190 214 197 203 194 209 208 207 201 197 187 195 180 177 162 170 181 188 202 221 237 247 281 268 305 297 296 296 300 311 276 261
14 17 3 4 15 15 340 186 199 205 209 196 148 182 171 189 200 202 209 209 198 191 191 189 181 182 181 189 198 216 247 263 253 238 299 312 303 300 299 296 293 275 253
20 25 23 27 33 36 64 134 161 181 185 202 194 157 181 179 178 183 196 208 201 188 176 189 181 189 201 209 217 224 210 167 222 272 287 299 302 301 299 292 286 276 265
27 33 34 35 38 44 62 104 136 148 153 169 184 158 161 173 187 176 182 193 198 189 171 167 183 202 209 204 209 214 219 225 287 310 292 290 303 301 300 287 285 281 242
35 38 38 43 52 42 54 72 96 136 140 150 184 189 173 168 183 184 173 195 200 201 196 183 179 187 196 216 220 220 224 247 283 294 285 277 286 296 303 263 208 231 199
46 46 49 51 56 71 80 75 79 116 135 139 169 190 202 196 176 184 191 184 195 202 206 208 216 219 211 215 222 231 258 271 281 284 272 267 273 287 287 266 216 213 200